Погода в Малыгине

Россия / Владимирская область     56°24′47″N   41°09′32″E
темп.,
°C
ветер,
м/с
пор.,
м/с
влажн.,
%
обл.,
%
осадки,
мм/ч
давл.,
гПа
погр.,
м
11 мая, вт
вт1100:00+6св26940 0.0 1027107
03:00+5св310951 0.0 1028240
06:00+7св412810 0.0 1028404
09:00+12св58550 0.0 1028591
12:00+17св56510 0.0 1028825
15:00+19всв45521 0.0 1027980
18:00+18всв36660 0.0 1027583
21:00+13всв369263 0.0 102886
12 мая, ср
ср1200:00+12всв249691 0.0 102881
03:00+11в239744 0.0 102851
06:00+13св26935 0.0 1028159
09:00+19всв586989 0.0 1027626
12:00+21в596741 1.6 10251441
15:00+22вюв51056100 2.1 10232011
18:00+19юв596654 1.1 10231081
21:00+15вюв398299 1.3 1023481
13 мая, чт
чт1300:00+13вюв389041 0.0 1024255
03:00+11вюв259749 0.0 1024124
06:00+13в3990100 0.0 1023289
09:00+17вюв48755 0.0 1022463
12:00+22вюв695390 0.0 10201449
15:00+16вюв5138286 1.3 1019755
18:00+16юв4109240 1.5 1018556
21:00+14ююв259794 3.6 1018129
14 мая, пт
пт1400:00+12ююз229810 0.0 101945
03:00+11ю11970 0.0 101910
06:00+13юв129358 0.0 102074
09:00+18юв2273100 0.0 1019427
12:00+21юв2355100 0.0 1019968
15:00+23юв344990 0.0 10181743
18:00+22юв376391 0.0 1016436
21:00+17вюв3683100 0.0 101595
15 мая, сб
сб1500:00+15юв2896100 1.5 1014168
03:00+15юв2697100 3.4 1015127
06:00+16юв4109427 0.0 1013262
09:00+21юв4873100 0.0 1011482
12:00+24ююв5749100 0.0 10111214
15:00+24ююв6105486 0.0 10101374
18:00+23ю5106459 0.0 10091258
21:00+17ююз51486100 1.1 1009473